Location: Montreal
(45.5000°N, 73.5833°W)
Time: 18:05:00
(UTC-05:00)

Vanguard 1 - Pass Details

Date: 27 October 2017
Orbit: 650 x 3834 km, 34.2° (Epoch: 17 November)

Event Time Altitude Azimuth Distance (km) Brightness Sun altitude
Rises 23:15:46 0° 227° (SW) 4,127 - -53.2°
Reaches altitude 10° 23:18:18 10° 219° (SW) 3,462 - -53.5°
Maximum altitude 23:26:41 40° 153° (SSE) 2,746 - -54.3°
Drops below altitude 10° 23:41:09 10° 93° (E) 5,906 - -55.5°
Exits shadow 23:44:24 - 89° (E) 6,713 14.2 -55.7°
Sets 23:47:04 0° 87° (E) 7,358 14.4 -55.9°
